Flag for Chile Weather past 2 weeks in Puerto Williams, Chile

Now
52 °F

Passing clouds.


Feels Like: 52 °F
Forecast: 38 / 57 °F
Wind: No wind

Location: Ushuaia Aerodrome

Current Time: Dec 28, 2014 at 3:03:05 PM

Latest Report: Dec 28, 2014 at 2:00 PM


Visibility: N/A

Pressure: 29.68 "Hg

Humidity: 47%

Dew point: 32 °F

Location of Puerto WilliamsLocation

Historic Weather in Puerto Williams — Graph

°F

Puerto Williams temperature yesterday

Maximum temperature yesterday: 50 °F (at 2:00 PM)
Minimum temperature yesterday: 41 °F (at 1:00 AM)
Average temperature yesterday: 45 °F

Past Weeks' High & Low Weather Summary

 TemperatureHumidityPressure
High70 °F (Dec 15, 2:00 PM)93% (Dec 16, 7:00 AM)29.80 "Hg (Dec 16, 7:00 AM)
Low37 °F (Dec 19, 9:00 AM)33% (Dec 15, 2:00 PM)28.80 "Hg (Dec 18, 9:00 AM)
Average45 °F72%29.34 "Hg
* Reported Dec 13 2:00 PM — Dec 28 2:00 PM, Puerto Williams, Weather by CustomWeather, © 2014

Note: Actual official high and low records may vary slightly from our data, if they occured in-between our weather recording intervals... More about our weather records

Advertising

Puerto Williams weather history for previous 24 hours

 ConditionsComfort  
Time TempWeatherWind HumidityBarometerVisibility
2:00 PM
Dec 28
52 °FPassing clouds.No wind47%29.68 "HgN/A
1:00 PM52 °FPassing clouds.5 mph44%29.71 "HgN/A
12:00 PM50 °FScattered clouds.5 mph58%29.71 "HgN/A
11:00 AM48 °FScattered clouds.3 mph62%29.74 "HgN/A
10:00 AM46 °FPartly sunny.5 mph71%29.74 "HgN/A
9:00 AM45 °FPartly sunny.5 mph76%29.77 "HgN/A
8:00 AM45 °FBroken clouds.3 mph71%29.77 "HgN/A
7:00 AM43 °FBroken clouds.No wind66%29.77 "HgN/A
6:00 AM43 °FScattered showers. Partly sunny.No wind66%29.77 "HgN/A
5:00 AM41 °FScattered showers. Partly sunny.No wind76%29.77 "HgN/A
4:00 AM41 °FPartly sunny.7 mph70%29.77 "HgN/A
3:00 AM43 °FPassing clouds.No wind66%29.77 "HgN/A
2:00 AM43 °FPassing clouds.No wind57%29.80 "HgN/A
1:00 AM43 °FPassing clouds.No wind57%29.77 "HgN/A
11:00 PM
Dec 27
45 °FPassing clouds.14 mph53%29.77 "HgN/A
10:00 PM46 °FPassing clouds.15 mph53%29.74 "HgN/A
9:00 PM46 °FScattered clouds.16 mph57%29.74 "HgN/A
8:00 PM48 °FScattered clouds.20 mph54%29.71 "HgN/A
7:00 PM50 °FScattered clouds.16 mph50%29.71 "HgN/A
6:00 PM48 °FPartly sunny.21 mph50%29.71 "HgN/A
5:00 PM46 °FScattered showers. Broken clouds.21 mph62%29.68 "HgN/A
4:00 PM46 °FScattered showers. Broken clouds.23 mph62%29.65 "HgN/A
3:00 PM48 °FScattered showers. Broken clouds.17 mph58%29.65 "HgN/A
Weather by CustomWeather, © 2014

See weather overviewHow to use our weather pages